[[{"header":{"parameterUnit":"m.s-1","parameterCategory":1,"la1":30.2991,"la2":30.254,"lo1":-89.0895,"lo2":-89.0444,"dy":0.0017,"dx":0.0017,"nx":28,"ny":28,"refTime":"2024-06-13T09:00:00:Z","depth":0,"parameterNumber":2,"parameterNumberName":"U-component_of_WINDS"},"data":[0,0,0,0,0,0,0,0,0,0,0,0,0,0,0,0,0,0,0,0,0,0,0,0,0,0,0,0,0,0,0,0,0,0,0,0,0,0,0,0,0,0,0,0,0,0,0,0,0,0,0,0,0,0,0,0,0,0,-0.7811,-0.7809,0,-0.7638,-0.7636,-0.7634,-0.7523,-0.7522,-0.7521,-0.7521,-0.7341,-0.7337,-0.7332,0,0,0,0,0,0,0,0,0,0,0,0,0,-0.8042,-0.8038,-0.7811,-0.7809,-0.7807,-0.7638,-0.7636,-0.7634,-0.7523,-0.7522,-0.7521,-0.752,-0.7342,-0.7337,-0.7332,0,0,0,0,0,0,0,0,0,0,0,0,0,-0.7913,-0.8037,-0.7811,-0.7731,-0.7722,-0.7639,-0.7636,-0.7633,-0.7523,-0.7522,-0.7521,-0.752,-0.7344,-0.7338,-0.7331,-0.7313,0,0,-0.7312,-0.731,0,0,0,0,0,0,0,0,-0.792,-0.7904,-0.7745,-0.7736,-0.7726,-0.7601,-0.7651,-0.7526,-0.7523,-0.7599,-0.7521,-0.752,-0.7428,-0.7415,-0.7384,-0.7305,-0.7297,-0.7312,-0.7308,-0.7305,-0.7303,0,0,0,0,0,0,0,-0.7929,-0.7911,-0.7742,-0.7743,-0.7731,-0.7703,-0.7683,-0.7627,-0.7521,-0.7592,-0.7583,-0.7565,-0.7422,-0.7391,-0.7379,-0.7294,-0.7312,-0.7306,-0.7303,-0.73,-0.7192,-0.7193,0,0,0,0,0,0,-0.7951,-0.7919,-0.7748,-0.7737,-0.7823,-0.77,-0.7678,-0.7642,-0.7521,-0.7502,-0.7566,-0.756,-0.7402,-0.7387,-0.7373,-0.7344,-0.7305,-0.7299,-0.7296,-0.7191,-0.7192,-0.7193,0,0,0,0,0,0,-0.7957,-0.7937,-0.7755,-0.7826,-0.78,-0.7697,-0.7658,-0.7639,-0.7607,-0.7501,-0.7482,-0.7553,-0.74,-0.7381,-0.7329,-0.7336,-0.7297,-0.7291,-0.719,-0.7191,-0.7192,-0.7287,0,0,0,0,0,0,-0.7964,-0.794,-0.7932,-0.7827,-0.7797,-0.7715,-0.7658,-0.7637,-0.7597,-0.7588,-0.7484,-0.7466,-0.7398,-0.7339,-0.7323,-0.7327,-0.7286,-0.7189,-0.719,-0.7192,-0.7282,-0.7291,-0.7298,0,0,0,0,0,-0.7972,-0.7965,-0.7932,-0.7912,-0.7786,-0.7716,-0.7699,-0.7622,-0.7598,-0.759,-0.7522,-0.7469,-0.7338,-0.7335,-0.7316,-0.7318,-0.7188,-0.719,-0.7192,-0.7279,-0.7289,-0.7298,0,0,0,0,0,0,-0.8073,-0.7949,-0.7912,-0.787,-0.7805,-0.7698,-0.7684,-0.7636,-0.7574,-0.7569,-0.7475,-0.7452,-0.741,-0.7358,-0.7357,-0.7294,-0.7257,-0.7255,-0.7329,-0.7338,-0.7346,-0.736,-0.7281,0,0,0,0,0,-0.809,-0.8045,-0.7939,-0.7912,-0.7881,-0.7789,-0.7755,-0.7702,-0.763,-0.7601,-0.7529,-0.746,-0.7403,-0.7368,-0.7309,-0.7274,-0.725,-0.7266,-0.7274,-0.7281,-0.7281,-0.7259,-0.7265,-0.7199,-0.7199,-0.7199,0,0,-0.8125,-0.8052,-0.8029,-0.7931,-0.7873,-0.7828,-0.7766,-0.772,-0.7685,-0.7593,-0.7541,-0.7486,-0.7402,-0.7359,-0.7336,-0.7315,-0.7294,-0.7284,-0.729,-0.7286,-0.7262,-0.7268,-0.7274,-0.7201,-0.72,-0.72,0,0,-0.8166,-0.8107,-0.8078,-0.8023,-0.7937,-0.7876,-0.787,-0.7769,-0.773,-0.7675,-0.7606,-0.7563,-0.7467,-0.741,-0.7369,-0.7391,-0.734,-0.7374,-0.7416,-0.7395,-0.7401,-0.7405,-0.7413,-0.7417,-0.7374,-0.7374,-0.7374,0,-0.8221,-0.815,-0.8069,-0.8028,-0.7987,-0.7903,-0.7873,-0.7823,-0.7723,-0.7696,-0.7673,-0.7552,-0.749,-0.7433,-0.7438,-0.7407,-0.7397,-0.7386,-0.7407,-0.741,-0.7413,-0.7419,-0.7423,-0.7379,-0.7378,-0.7378,-0.7377,0,-0.8221,-0.8174,-0.8161,-0.8068,-0.8025,-0.799,-0.7903,-0.7869,-0.782,-0.7761,-0.7707,-0.7629,-0.7555,-0.7537,-0.7487,-0.7473,-0.7462,-0.7425,-0.7385,-0.7425,-0.743,-0.7432,-0.7386,-0.7384,-0.7383,-0.7381,0,0,-0.832,-0.8184,-0.8181,-0.8138,-0.8038,-0.7999,-0.796,-0.7888,-0.7862,-0.7795,-0.776,-0.7681,-0.7646,-0.76,-0.7543,-0.7526,-0.7548,-0.749,-0.7486,-0.7504,-0.7528,-0.7558,-0.7563,-0.7514,-0.7514,-0.7514,-0.7536,0,-0.8347,-0.8274,-0.8201,-0.8153,-0.8108,-0.8028,-0.7994,-0.7929,-0.7873,-0.7826,-0.7763,-0.771,-0.7667,-0.7639,-0.7617,-0.755,-0.7552,-0.7548,-0.7481,-0.7479,-0.7505,-0.7565,-0.7596,-0.7619,-0.7537,-0.7537,-0.7537,0,-0.8368,-0.8308,-0.8257,-0.8162,-0.814,-0.8111,-0.804,-0.7996,-0.792,-0.7881,-0.783,-0.777,-0.7725,-0.7691,-0.7627,-0.7626,-0.7594,-0.7557,-0.7556,-0.7547,-0.7511,-0.7558,-0.7625,-0.7629,-0.7539,-0.7539,-0.7539,0,-0.8447,-0.8352,-0.8309,-0.8275,-0.8163,-0.8145,-0.8097,-0.8021,-0.7983,-0.792,-0.7894,-0.7827,-0.779,-0.7739,-0.7663,-0.7645,-0.7607,-0.7567,-0.7573,-0.7575,-0.7569,-0.7571,-0.7632,-0.7548,-0.7548,-0.7548,-0.7547,0,-0.8485,-0.8457,-0.8344,-0.8318,-0.8284,-0.8199,-0.8168,-0.8113,-0.8046,-0.8007,-0.7933,-0.7898,-0.78,-0.7753,-0.7693,-0.765,-0.7633,-0.76,-0.7584,-0.7607,-0.7611,-0.7585,-0.7582,-0.7548,-0.7548,-0.7548,-0.7548,0,-0.8568,-0.849,-0.8439,-0.8338,-0.8312,-0.8291,-0.8204,-0.8176,-0.8116,-0.8068,-0.8052,-0.7958,-0.7899,-0.7818,-0.7734,-0.7693,-0.7659,-0.7633,-0.7685,-0.7676,-0.7687,-0.7688,-0.7735,-0.7737,-0.7651,-0.7652,-0.7653,0,-0.8597,-0.8574,-0.8471,-0.8441,-0.8396,-0.8347,-0.8309,-0.8224,-0.8187,-0.81,-0.8082,-0.8018,-0.7962,-0.7872,-0.7796,-0.7731,-0.7704,-0.7725,-0.7694,-0.7718,-0.7705,-0.7708,-0.7706,-0.7733,-0.7734,-0.7736,-0.7736,0,-0.8658,-0.8622,-0.8569,-0.8503,-0.846,-0.8403,-0.8344,-0.8323,-0.8226,-0.8187,-0.8127,-0.8084,-0.7999,-0.7937,-0.7862,-0.7812,-0.7759,-0.7747,-0.7745,-0.7768,-0.78,-0.7784,-0.7707,-0.7746,-0.7745,-0.7745,-0.7744,-0.7744,-0.8715,-0.8692,-0.8616,-0.856,-0.8507,-0.8453,-0.8421,-0.8358,-0.8307,-0.8232,-0.8185,-0.8128,-0.8053,-0.7948,-0.79,-0.7854,-0.7832,-0.7829,-0.7828,-0.7829,-0.7838,-0.7807,-0.7839,-0.7839,-0.7839,-0.7838,-0.7838,0,-0.8773,-0.8721,-0.8671,-0.859,-0.8547,-0.8501,-0.8432,-0.8399,-0.8349,-0.8285,-0.8232,-0.8163,-0.8103,-0.8022,-0.7956,-0.7934,-0.7908,-0.7919,-0.792,-0.791,-0.786,-0.7869,-0.7942,-0.7942,-0.7942,-0.7942,-0.7942,-0.7942,-0.8799,-0.8756,-0.8711,-0.8641,-0.8588,-0.8532,-0.8498,-0.8448,-0.8396,-0.8323,-0.8273,-0.8221,-0.815,-0.8078,-0.802,-0.7998,-0.7977,-0.7997,-0.7967,-0.7923,-0.7913,-0.7904,-0.7912,-0.7993,-0.7993,-0.8021,-0.8021,-0.8021]},{"header":{"parameterUnit":"m.s-1","parameterCategory":1,"la1":30.2991,"la2":30.254,"lo1":-89.0895,"lo2":-89.0444,"dy":0.0017,"dx":0.0017,"nx":28,"ny":28,"refTime":"2024-06-13T09:00:00:Z","depth":0,"parameterNumber":3,"parameterNumberName":"V-component_of_WINDS"},"data":[0,0,0,0,0,0,0,0,0,0,0,0,0,0,0,0,0,0,0,0,0,0,0,0,0,0,0,0,0,0,0,0,0,0,0,0,0,0,0,0,0,0,0,0,0,0,0,0,0,0,0,0,0,0,0,0,0,0,2.7696,2.7695,0,2.7665,2.7665,2.7664,2.7625,2.7624,2.7624,2.7623,2.759,2.759,2.759,0,0,0,0,0,0,0,0,0,0,0,0,0,2.7718,2.7717,2.7696,2.7695,2.7695,2.7665,2.7665,2.7664,2.7625,2.7624,2.7623,2.7623,2.759,2.759,2.759,0,0,0,0,0,0,0,0,0,0,0,0,0,2.77,2.7717,2.7696,2.7672,2.7669,2.7665,2.7665,2.7664,2.7625,2.7624,2.7623,2.7622,2.7591,2.759,2.759,2.7606,0,0,2.7589,2.7588,0,0,0,0,0,0,0,0,2.7701,2.7699,2.7676,2.7673,2.7671,2.7648,2.766,2.7645,2.7625,2.7642,2.7623,2.7622,2.761,2.7608,2.7604,2.7605,2.7603,2.7588,2.7588,2.7588,2.7588,0,0,0,0,0,0,0,2.7702,2.77,2.7684,2.7675,2.7672,2.7662,2.7658,2.7657,2.7632,2.764,2.7637,2.7634,2.7609,2.7605,2.7603,2.7603,2.7588,2.7588,2.7588,2.7588,2.7612,2.7613,0,0,0,0,0,0,2.7707,2.7701,2.7685,2.7683,2.7684,2.7662,2.7658,2.7656,2.7632,2.7627,2.7635,2.7633,2.7606,2.7604,2.7602,2.7617,2.7588,2.7588,2.7587,2.7611,2.7613,2.7614,0,0,0,0,0,0,2.7708,2.7706,2.7686,2.7691,2.7688,2.7663,2.7661,2.7656,2.7652,2.7628,2.7623,2.7636,2.7605,2.7603,2.7605,2.7616,2.7587,2.7587,2.761,2.7612,2.7613,2.765,0,0,0,0,0,0,2.7709,2.7707,2.7713,2.7692,2.7688,2.769,2.7662,2.7656,2.7652,2.7648,2.7627,2.7623,2.7604,2.7606,2.7605,2.7615,2.7587,2.7609,2.7611,2.7613,2.7648,2.7652,2.7657,0,0,0,0,0,2.771,2.7725,2.7714,2.7712,2.7696,2.7691,2.7688,2.7667,2.7653,2.7659,2.7643,2.7624,2.7615,2.7606,2.7605,2.7615,2.7608,2.7611,2.7612,2.7646,2.7651,2.7656,0,0,0,0,0,0,2.7748,2.7722,2.7709,2.7718,2.7707,2.7684,2.7691,2.7674,2.7666,2.7663,2.7636,2.7632,2.7637,2.7627,2.7617,2.7628,2.7609,2.7611,2.7635,2.764,2.7644,2.7646,2.7586,0,0,0,0,0,2.7758,2.7757,2.7734,2.7744,2.7739,2.7716,2.7713,2.7698,2.7685,2.768,2.7664,2.7652,2.7646,2.7643,2.7636,2.7647,2.764,2.7653,2.7657,2.7661,2.7662,2.7664,2.7668,2.762,2.762,2.762,0,0,2.7778,2.7764,2.7764,2.7752,2.7741,2.7739,2.7713,2.7713,2.771,2.768,2.768,2.7668,2.7653,2.7658,2.766,2.765,2.7674,2.7663,2.7667,2.7665,2.7666,2.7671,2.7675,2.7622,2.7621,2.7621,0,0,2.7813,2.7803,2.7809,2.7799,2.7783,2.7768,2.7769,2.7749,2.7739,2.774,2.7716,2.7713,2.7705,2.7694,2.7687,2.7717,2.7698,2.7715,2.7738,2.774,2.7743,2.7747,2.7755,2.7758,2.7717,2.7717,2.7717,0,2.7839,2.7836,2.7814,2.7815,2.7809,2.7782,2.7787,2.7778,2.7761,2.7757,2.7746,2.7733,2.7721,2.7722,2.7729,2.7726,2.7725,2.7717,2.7745,2.7748,2.775,2.7758,2.7761,2.7719,2.7719,2.7719,2.7718,0,2.7868,2.7866,2.7873,2.7857,2.7852,2.7856,2.7833,2.783,2.7815,2.78,2.78,2.7784,2.7773,2.7773,2.7758,2.7771,2.7765,2.775,2.773,2.7757,2.7763,2.7766,2.7722,2.7721,2.7721,2.772,0,0,2.7925,2.7897,2.7899,2.7891,2.7871,2.7869,2.787,2.786,2.7857,2.7846,2.7845,2.7838,2.7823,2.7816,2.78,2.7802,2.7823,2.7786,2.7785,2.7791,2.7833,2.7843,2.7847,2.7811,2.7812,2.7812,2.7834,0,2.7954,2.7955,2.7934,2.794,2.7937,2.7911,2.7911,2.7899,2.7885,2.788,2.7864,2.7858,2.7841,2.7836,2.7837,2.782,2.783,2.7819,2.7808,2.7808,2.781,2.7851,2.7861,2.7883,2.7836,2.7837,2.7837,0,2.7988,2.7978,2.7984,2.7962,2.796,2.7961,2.7949,2.7945,2.7929,2.7919,2.791,2.7892,2.789,2.7872,2.7868,2.786,2.7855,2.7846,2.7846,2.7842,2.7823,2.7846,2.7889,2.7891,2.7841,2.7841,2.7841,0,2.8025,2.8015,2.8016,2.801,2.7986,2.7986,2.7976,2.796,2.7955,2.7944,2.7939,2.7928,2.7922,2.7913,2.7891,2.7881,2.7889,2.787,2.7878,2.7879,2.7879,2.7879,2.792,2.788,2.788,2.788,2.788,0,2.8058,2.8062,2.8032,2.8032,2.8035,2.8012,2.8015,2.8002,2.7988,2.7984,2.7962,2.7959,2.7931,2.7925,2.7908,2.7906,2.7904,2.7894,2.7889,2.7894,2.7895,2.7889,2.7886,2.7881,2.7881,2.788,2.788,0,2.81,2.808,2.8079,2.8057,2.8051,2.8054,2.8034,2.8032,2.8017,2.8013,2.8011,2.7987,2.7978,2.7956,2.7941,2.793,2.7931,2.7924,2.7936,2.7932,2.7941,2.794,2.7978,2.798,2.7941,2.7941,2.7942,0,2.812,2.8122,2.81,2.8096,2.8087,2.8082,2.8075,2.8053,2.8047,2.8029,2.803,2.8019,2.8009,2.7996,2.7976,2.7964,2.7955,2.7969,2.7953,2.7958,2.7952,2.7951,2.795,2.7972,2.7972,2.7973,2.7973,0,2.8159,2.8149,2.8141,2.813,2.8124,2.8114,2.8102,2.81,2.8074,2.8069,2.806,2.8052,2.8037,2.8026,2.8011,2.7999,2.7981,2.7979,2.7979,2.7984,2.799,2.7985,2.7943,2.7977,2.7977,2.7977,2.7976,2.7976,2.8188,2.8188,2.8172,2.8164,2.8153,2.8143,2.814,2.8125,2.8117,2.8103,2.809,2.8082,2.8065,2.8043,2.8032,2.8024,2.8015,2.8017,2.8017,2.8017,2.8019,2.7994,2.8022,2.8022,2.8021,2.8021,2.8021,0,2.8223,2.8212,2.8205,2.8189,2.8183,2.8168,2.8154,2.8149,2.8142,2.8129,2.8119,2.8108,2.8097,2.8076,2.8063,2.8061,2.8052,2.8058,2.8056,2.8053,2.8029,2.8028,2.8065,2.8065,2.8065,2.8065,2.8065,2.8065,2.824,2.8238,2.8227,2.8219,2.8207,2.8199,2.8192,2.8182,2.8171,2.8159,2.815,2.8137,2.812,2.8105,2.8094,2.8088,2.8083,2.8091,2.8083,2.806,2.8056,2.8052,2.8051,2.8091,2.8091,2.8108,2.8108,2.8108]}]]